User: anonymous
Location: Shell Point
(30.0571°N, 84.2896°W)
Time: 09:30:33
(UTC-04:00)
Language:

Meteor 2-19 Rocket - Orbit

View from above orbital plane
View from above orbital plane
View from above satellite
View from above satellite

Ground track
Ground track

The orbit data is extracted from the following two-line orbital elements,

1 20671U 90057B   14211.77771396  .00000020  00000-0  46825-5 0   345
2 20671 082.5488 128.6472 0015817 037.9275 013.6468 13.84574854217432
Epoch (UTC): 30 July 2014 18:39:54
Eccentricity: 0.0015817
inclination: 82.5488°
perigee height: 936 km
apogee height: 959 km
right ascension of ascending node: 128.6472°
argument of perigee: 37.9275°
revolutions per day: 13.84574854
mean anomaly at epoch: 13.6468°
orbit number at epoch: 21743

The dashed part of the orbit path shows where the satellite is in the earth's shadow,  

DLR